Year,Month,Day,Hour,Minute,Value (Times are PST for temperature in C)
2017,02,12,00,00,4.70
2017,02,12,00,01,4.70
2017,02,12,00,02,4.70
2017,02,12,00,03,4.70
2017,02,12,00,04,4.70
2017,02,12,00,05,4.70
2017,02,12,00,06,4.70
2017,02,12,00,07,4.70
2017,02,12,00,08,4.70
2017,02,12,00,09,4.70
2017,02,12,00,10,4.70
2017,02,12,00,11,4.70
2017,02,12,00,12,4.70
2017,02,12,00,13,4.70
2017,02,12,00,14,4.70
2017,02,12,00,15,4.70
2017,02,12,00,16,4.70
2017,02,12,00,17,4.70
2017,02,12,00,18,4.70
2017,02,12,00,19,4.70
2017,02,12,00,20,4.80
2017,02,12,00,21,4.80
2017,02,12,00,22,4.80
2017,02,12,00,23,4.80
2017,02,12,00,24,4.80
2017,02,12,00,25,4.80
2017,02,12,00,26,4.80
2017,02,12,00,27,4.80
2017,02,12,00,28,4.80
2017,02,12,00,29,4.80
2017,02,12,00,30,4.80
2017,02,12,00,31,4.80
2017,02,12,00,32,4.80
2017,02,12,00,33,4.80
2017,02,12,00,34,4.80
2017,02,12,00,35,4.80
2017,02,12,00,36,4.80
2017,02,12,00,37,4.80
2017,02,12,00,38,4.80
2017,02,12,00,39,4.80
2017,02,12,00,40,4.70
2017,02,12,00,41,4.70
2017,02,12,00,42,4.70
2017,02,12,00,43,4.70
2017,02,12,00,44,4.70
2017,02,12,00,45,4.70
2017,02,12,00,46,4.70
2017,02,12,00,47,4.70
2017,02,12,00,48,4.80
2017,02,12,00,49,4.80
2017,02,12,00,50,4.80
2017,02,12,00,51,4.80
2017,02,12,00,52,4.80
2017,02,12,00,53,4.80
2017,02,12,00,54,4.80
2017,02,12,00,55,4.80
2017,02,12,00,56,4.80
2017,02,12,00,57,4.80
2017,02,12,00,58,4.80
2017,02,12,00,59,4.80
2017,02,12,01,00,4.90
2017,02,12,01,01,4.90
2017,02,12,01,02,4.90
2017,02,12,01,03,4.90
2017,02,12,01,04,4.90
2017,02,12,01,05,4.90
2017,02,12,01,06,4.90
2017,02,12,01,07,4.90
2017,02,12,01,08,4.90
2017,02,12,01,09,4.90
2017,02,12,01,10,4.90
2017,02,12,01,11,4.90
2017,02,12,01,12,4.90
2017,02,12,01,13,4.90
2017,02,12,01,14,4.90
2017,02,12,01,15,4.90
2017,02,12,01,16,4.90
2017,02,12,01,17,5.00
2017,02,12,01,18,5.00
2017,02,12,01,19,5.00
2017,02,12,01,20,5.00
2017,02,12,01,21,5.10
2017,02,12,01,22,5.00
2017,02,12,01,23,5.10
2017,02,12,01,24,5.10
2017,02,12,01,25,5.10
2017,02,12,01,26,5.10
2017,02,12,01,27,5.10
2017,02,12,01,28,5.10
2017,02,12,01,29,5.10
2017,02,12,01,30,5.10
2017,02,12,01,31,5.10
2017,02,12,01,32,5.20
2017,02,12,01,33,5.20
2017,02,12,01,34,5.20
2017,02,12,01,35,5.20
2017,02,12,01,36,5.20
2017,02,12,01,37,5.20
2017,02,12,01,38,5.20
2017,02,12,01,39,5.20
2017,02,12,01,40,5.20
2017,02,12,01,41,5.30
2017,02,12,01,42,5.30
2017,02,12,01,43,5.30
2017,02,12,01,44,5.30
2017,02,12,01,45,5.30
2017,02,12,01,46,5.30
2017,02,12,01,47,5.30
2017,02,12,01,48,5.30
2017,02,12,01,49,5.30
2017,02,12,01,50,5.30
2017,02,12,01,51,5.30
2017,02,12,01,52,5.30
2017,02,12,01,53,5.30
2017,02,12,01,54,5.30
2017,02,12,01,55,5.30
2017,02,12,01,56,5.30
2017,02,12,01,57,5.30
2017,02,12,01,58,5.30
2017,02,12,01,59,5.30
2017,02,12,02,00,5.20
2017,02,12,02,01,5.20
2017,02,12,02,02,5.20
2017,02,12,02,03,5.20
2017,02,12,02,04,5.30
2017,02,12,02,05,5.30
2017,02,12,02,06,5.30
2017,02,12,02,07,5.30
2017,02,12,02,08,5.30
2017,02,12,02,09,5.30
2017,02,12,02,10,5.30
2017,02,12,02,11,5.30
2017,02,12,02,12,5.30
2017,02,12,02,13,5.30
2017,02,12,02,14,5.30
2017,02,12,02,15,5.30
2017,02,12,02,16,5.30
2017,02,12,02,17,5.30
2017,02,12,02,18,5.30
2017,02,12,02,19,5.30
2017,02,12,02,20,5.30
2017,02,12,02,21,5.30
2017,02,12,02,22,5.30
2017,02,12,02,23,5.30
2017,02,12,02,24,5.30
2017,02,12,02,25,5.30
2017,02,12,02,26,5.30
2017,02,12,02,27,5.30
2017,02,12,02,28,5.30
2017,02,12,02,29,5.30
2017,02,12,02,30,5.30
2017,02,12,02,31,5.30
2017,02,12,02,32,5.30
2017,02,12,02,33,5.30
2017,02,12,02,34,5.30
2017,02,12,02,35,5.30
2017,02,12,02,36,5.30
2017,02,12,02,37,5.30
2017,02,12,02,38,5.30
2017,02,12,02,39,5.30
2017,02,12,02,40,5.40
2017,02,12,02,41,5.40
2017,02,12,02,42,5.30
2017,02,12,02,43,5.40
2017,02,12,02,44,5.30
2017,02,12,02,45,5.30
2017,02,12,02,46,5.30
2017,02,12,02,47,5.30
2017,02,12,02,48,5.30
2017,02,12,02,49,5.30
2017,02,12,02,50,5.30
2017,02,12,02,51,5.30
2017,02,12,02,52,5.30
2017,02,12,02,53,5.30
2017,02,12,02,54,5.30
2017,02,12,02,55,5.30
2017,02,12,02,56,5.30
2017,02,12,02,57,5.30
2017,02,12,02,58,5.30
2017,02,12,02,59,5.30
2017,02,12,03,00,5.40
2017,02,12,03,01,5.40
2017,02,12,03,02,5.40
2017,02,12,03,03,5.40
2017,02,12,03,04,5.40
2017,02,12,03,05,5.40
2017,02,12,03,06,5.40
2017,02,12,03,07,5.40
2017,02,12,03,08,5.40
2017,02,12,03,09,5.40
2017,02,12,03,10,5.40
2017,02,12,03,11,5.50
2017,02,12,03,12,5.50
2017,02,12,03,13,5.50
2017,02,12,03,14,5.50
2017,02,12,03,15,5.50
2017,02,12,03,16,5.60
2017,02,12,03,17,5.60
2017,02,12,03,18,5.60
2017,02,12,03,19,5.60
2017,02,12,03,20,5.70
2017,02,12,03,21,5.70
2017,02,12,03,22,5.70
2017,02,12,03,23,5.70
2017,02,12,03,24,5.80
2017,02,12,03,25,5.80
2017,02,12,03,26,5.80
2017,02,12,03,27,5.80
2017,02,12,03,28,5.80
2017,02,12,03,29,5.90
2017,02,12,03,30,5.90
2017,02,12,03,31,5.90
2017,02,12,03,32,5.90
2017,02,12,03,33,5.90
2017,02,12,03,34,5.90
2017,02,12,03,35,5.90
2017,02,12,03,36,6.00
2017,02,12,03,37,6.00
2017,02,12,03,38,6.00
2017,02,12,03,39,6.00
2017,02,12,03,40,6.00
2017,02,12,03,41,6.00
2017,02,12,03,42,6.10
2017,02,12,03,43,6.10
2017,02,12,03,44,6.10
2017,02,12,03,45,6.10
2017,02,12,03,46,6.20
2017,02,12,03,47,6.20
2017,02,12,03,48,6.20
2017,02,12,03,49,6.20
2017,02,12,03,50,6.20
2017,02,12,03,51,6.20
2017,02,12,03,52,6.20
2017,02,12,03,53,6.30
2017,02,12,03,54,6.30
2017,02,12,03,55,6.40
2017,02,12,03,56,6.40
2017,02,12,03,57,6.50
2017,02,12,03,58,6.50
2017,02,12,03,59,6.60
2017,02,12,04,00,6.60
2017,02,12,04,01,6.60
2017,02,12,04,02,6.60
2017,02,12,04,03,6.60
2017,02,12,04,04,6.60
2017,02,12,04,05,6.60
2017,02,12,04,06,6.60
2017,02,12,04,07,6.60
2017,02,12,04,08,6.60
2017,02,12,04,09,6.60
2017,02,12,04,10,6.60
2017,02,12,04,11,6.60
2017,02,12,04,12,6.60
2017,02,12,04,13,6.50
2017,02,12,04,14,6.50
2017,02,12,04,15,6.50
2017,02,12,04,16,6.50
2017,02,12,04,17,6.50
2017,02,12,04,18,6.50
2017,02,12,04,19,6.50
2017,02,12,04,20,6.50
2017,02,12,04,21,6.50
2017,02,12,04,22,6.50
2017,02,12,04,23,6.50
2017,02,12,04,24,6.60
2017,02,12,04,25,6.60
2017,02,12,04,26,6.60
2017,02,12,04,27,6.60
2017,02,12,04,28,6.60
2017,02,12,04,29,6.60
2017,02,12,04,30,6.60
2017,02,12,04,31,6.60
2017,02,12,04,32,6.60
2017,02,12,04,33,6.70
2017,02,12,04,34,6.70
2017,02,12,04,35,6.60
2017,02,12,04,36,6.70
2017,02,12,04,37,6.70
2017,02,12,04,38,6.70
2017,02,12,04,39,6.70
2017,02,12,04,40,6.70
2017,02,12,04,41,6.70
2017,02,12,04,42,6.70
2017,02,12,04,43,6.70
2017,02,12,04,44,6.70
2017,02,12,04,45,6.70
2017,02,12,04,46,6.60
2017,02,12,04,47,6.60
2017,02,12,04,48,6.60
2017,02,12,04,49,6.50
2017,02,12,04,50,6.50
2017,02,12,04,51,6.50
2017,02,12,04,52,6.50
2017,02,12,04,53,6.50
2017,02,12,04,54,6.50
2017,02,12,04,55,6.50
2017,02,12,04,56,6.50
2017,02,12,04,57,6.50
2017,02,12,04,58,6.50
2017,02,12,04,59,6.60
2017,02,12,05,00,6.60
2017,02,12,05,01,6.70
2017,02,12,05,02,6.70
2017,02,12,05,03,6.70
2017,02,12,05,04,6.70
2017,02,12,05,05,6.70
2017,02,12,05,06,6.80
2017,02,12,05,07,6.80
2017,02,12,05,08,6.80
2017,02,12,05,09,6.80
2017,02,12,05,10,6.80
2017,02,12,05,11,6.70
2017,02,12,05,12,6.70
2017,02,12,05,13,6.70
2017,02,12,05,14,6.80
2017,02,12,05,15,6.80
2017,02,12,05,16,6.70
2017,02,12,05,17,6.70
2017,02,12,05,18,6.70
2017,02,12,05,19,6.70
2017,02,12,05,20,6.70
2017,02,12,05,21,6.70
2017,02,12,05,22,6.70
2017,02,12,05,23,6.70
2017,02,12,05,24,6.70
2017,02,12,05,25,6.80
2017,02,12,05,26,6.80
2017,02,12,05,27,6.90
2017,02,12,05,28,6.90
2017,02,12,05,29,6.90
2017,02,12,05,30,6.90
2017,02,12,05,31,7.00
2017,02,12,05,32,7.00
2017,02,12,05,33,7.00
2017,02,12,05,34,7.00
2017,02,12,05,35,7.00
2017,02,12,05,36,7.00
2017,02,12,05,37,7.00
2017,02,12,05,38,7.00
2017,02,12,05,39,7.00
2017,02,12,05,40,7.00
2017,02,12,05,41,7.00
2017,02,12,05,42,7.00
2017,02,12,05,43,7.00
2017,02,12,05,44,7.00
2017,02,12,05,45,7.00
2017,02,12,05,46,7.00
2017,02,12,05,47,7.00
2017,02,12,05,48,7.10
2017,02,12,05,49,7.10
2017,02,12,05,50,7.10
2017,02,12,05,51,7.20
2017,02,12,05,52,7.20
2017,02,12,05,53,7.20
2017,02,12,05,54,7.20
2017,02,12,05,55,7.20
2017,02,12,05,56,7.20
2017,02,12,05,57,7.30
2017,02,12,05,58,7.30
2017,02,12,05,59,7.30
2017,02,12,06,00,7.30
2017,02,12,06,01,7.30
2017,02,12,06,02,7.30
2017,02,12,06,03,7.30
2017,02,12,06,04,7.30
2017,02,12,06,05,7.30
2017,02,12,06,06,7.30
2017,02,12,06,07,7.30
2017,02,12,06,08,7.40
2017,02,12,06,09,7.40
2017,02,12,06,10,7.40
2017,02,12,06,11,7.40
2017,02,12,06,12,7.40
2017,02,12,06,13,7.40
2017,02,12,06,14,7.40
2017,02,12,06,15,7.30
2017,02,12,06,16,7.30
2017,02,12,06,17,7.30
2017,02,12,06,18,7.30
2017,02,12,06,19,7.30
2017,02,12,06,20,7.30
2017,02,12,06,21,7.30
2017,02,12,06,22,7.40
2017,02,12,06,23,7.40
2017,02,12,06,24,7.40
2017,02,12,06,25,7.40
2017,02,12,06,26,7.40
2017,02,12,06,27,7.40
2017,02,12,06,28,7.50
2017,02,12,06,29,7.50
2017,02,12,06,30,7.50
2017,02,12,06,31,7.50
2017,02,12,06,32,7.50
2017,02,12,06,33,7.50
2017,02,12,06,34,7.50
2017,02,12,06,35,7.50
2017,02,12,06,36,7.50
2017,02,12,06,37,7.50
2017,02,12,06,38,7.50
2017,02,12,06,39,7.50
2017,02,12,06,40,7.50
2017,02,12,06,41,7.50
2017,02,12,06,42,7.50
2017,02,12,06,43,7.40
2017,02,12,06,44,7.40
2017,02,12,06,45,7.40
2017,02,12,06,46,7.40
2017,02,12,06,47,7.40
2017,02,12,06,48,7.30
2017,02,12,06,49,7.30
2017,02,12,06,50,7.30
2017,02,12,06,51,7.30
2017,02,12,06,52,7.30
2017,02,12,06,53,7.30
2017,02,12,06,54,7.30
2017,02,12,06,55,7.30
2017,02,12,06,56,7.30
2017,02,12,06,57,7.30
2017,02,12,06,58,7.30
2017,02,12,06,59,7.30
2017,02,12,07,00,7.30
2017,02,12,07,01,7.30
2017,02,12,07,02,7.30
2017,02,12,07,03,7.30
2017,02,12,07,04,7.30
2017,02,12,07,05,7.30
2017,02,12,07,06,7.30
2017,02,12,07,07,7.30
2017,02,12,07,08,7.30
2017,02,12,07,09,7.30
2017,02,12,07,10,7.30
2017,02,12,07,11,7.30
2017,02,12,07,12,7.30
2017,02,12,07,13,7.30
2017,02,12,07,14,7.30
2017,02,12,07,15,7.30
2017,02,12,07,16,7.30
2017,02,12,07,17,7.30
2017,02,12,07,18,7.30
2017,02,12,07,19,7.30
2017,02,12,07,20,7.30
2017,02,12,07,21,7.30
2017,02,12,07,22,7.30
2017,02,12,07,23,7.20
2017,02,12,07,24,7.20
2017,02,12,07,25,7.20
2017,02,12,07,26,7.20
2017,02,12,07,27,7.20
2017,02,12,07,28,7.20
2017,02,12,07,29,7.20
2017,02,12,07,30,7.20
2017,02,12,07,31,7.20
2017,02,12,07,32,7.10
2017,02,12,07,33,7.10
2017,02,12,07,34,7.10
2017,02,12,07,35,7.10
2017,02,12,07,36,7.10
2017,02,12,07,37,7.10
2017,02,12,07,38,7.10
2017,02,12,07,39,7.10
2017,02,12,07,40,7.10
2017,02,12,07,41,7.10
2017,02,12,07,42,7.00
2017,02,12,07,43,7.00
2017,02,12,07,44,7.00
2017,02,12,07,45,7.10
2017,02,12,07,46,7.00
2017,02,12,07,47,7.00
2017,02,12,07,48,7.00
2017,02,12,07,49,7.00
2017,02,12,07,50,7.00
2017,02,12,07,51,7.00
2017,02,12,07,52,7.00
2017,02,12,07,53,7.10
2017,02,12,07,54,7.10
2017,02,12,07,55,7.10
2017,02,12,07,56,7.10
2017,02,12,07,57,7.10
2017,02,12,07,58,7.10
2017,02,12,07,59,7.10
2017,02,12,08,00,7.10
2017,02,12,08,01,7.20
2017,02,12,08,02,7.20
2017,02,12,08,03,7.20
2017,02,12,08,04,7.20
2017,02,12,08,05,7.20
2017,02,12,08,06,7.20
2017,02,12,08,07,7.20
2017,02,12,08,08,7.10
2017,02,12,08,09,7.10
2017,02,12,08,10,7.10
2017,02,12,08,11,7.10
2017,02,12,08,12,7.10
2017,02,12,08,13,7.10
2017,02,12,08,14,7.10
2017,02,12,08,15,7.10
2017,02,12,08,16,7.10
2017,02,12,08,17,7.10
2017,02,12,08,18,7.10
2017,02,12,08,19,7.00
2017,02,12,08,20,7.00
2017,02,12,08,21,7.00
2017,02,12,08,22,7.00
2017,02,12,08,23,7.00
2017,02,12,08,24,7.00
2017,02,12,08,25,7.00
2017,02,12,08,26,6.90
2017,02,12,08,27,6.90
2017,02,12,08,28,6.90
2017,02,12,08,29,6.90
2017,02,12,08,30,6.90
2017,02,12,08,31,6.90
2017,02,12,08,32,6.90
2017,02,12,08,33,6.90
2017,02,12,08,34,6.90
2017,02,12,08,35,6.90
2017,02,12,08,36,6.80
2017,02,12,08,37,6.80
2017,02,12,08,38,6.80
2017,02,12,08,39,6.80
2017,02,12,08,40,6.80
2017,02,12,08,41,6.80
2017,02,12,08,42,6.80
2017,02,12,08,43,6.80
2017,02,12,08,44,6.80
2017,02,12,08,45,6.80
2017,02,12,08,46,6.80
2017,02,12,08,47,6.80
2017,02,12,08,48,6.80
2017,02,12,08,49,6.70
2017,02,12,08,50,6.70
2017,02,12,08,51,6.70
2017,02,12,08,52,6.70
2017,02,12,08,53,6.70
2017,02,12,08,54,6.70
2017,02,12,08,55,6.70
2017,02,12,08,56,6.70
2017,02,12,08,57,6.60
2017,02,12,08,58,6.60
2017,02,12,08,59,6.60
2017,02,12,09,00,6.60
2017,02,12,09,01,6.60
2017,02,12,09,02,6.50
2017,02,12,09,03,6.50
2017,02,12,09,04,6.50
2017,02,12,09,05,6.40
2017,02,12,09,06,6.40
2017,02,12,09,07,6.40
2017,02,12,09,08,6.40
2017,02,12,09,09,6.30
2017,02,12,09,10,6.30
2017,02,12,09,11,6.30
2017,02,12,09,12,6.30
2017,02,12,09,13,6.30
2017,02,12,09,14,6.30
2017,02,12,09,15,6.30
2017,02,12,09,16,6.30
2017,02,12,09,17,6.30
2017,02,12,09,18,6.30
2017,02,12,09,19,6.30
2017,02,12,09,20,6.20
2017,02,12,09,21,6.20
2017,02,12,09,22,6.20
2017,02,12,09,23,6.20
2017,02,12,09,24,6.20
2017,02,12,09,25,6.20
2017,02,12,09,26,6.20
2017,02,12,09,27,6.20
2017,02,12,09,28,6.20
2017,02,12,09,29,6.10
2017,02,12,09,30,6.10
2017,02,12,09,31,6.10
2017,02,12,09,32,6.10
2017,02,12,09,33,6.10
2017,02,12,09,34,6.00
2017,02,12,09,35,6.00
2017,02,12,09,36,5.90
2017,02,12,09,37,5.90
2017,02,12,09,38,5.90
2017,02,12,09,39,5.90
2017,02,12,09,40,5.90
2017,02,12,09,41,5.90
2017,02,12,09,42,5.80
2017,02,12,09,43,5.80
2017,02,12,09,44,5.80
2017,02,12,09,45,5.70
2017,02,12,09,46,5.70
2017,02,12,09,47,5.70
2017,02,12,09,48,5.70
2017,02,12,09,49,5.60
2017,02,12,09,50,5.60
2017,02,12,09,51,5.60
2017,02,12,09,52,5.50
2017,02,12,09,53,5.50
2017,02,12,09,54,5.50
2017,02,12,09,55,5.40
2017,02,12,09,56,5.40
2017,02,12,09,57,5.30
2017,02,12,09,58,5.30
2017,02,12,09,59,5.30
2017,02,12,10,00,5.20
2017,02,12,10,01,5.20
2017,02,12,10,02,5.10
2017,02,12,10,03,5.00
2017,02,12,10,04,5.00
2017,02,12,10,05,4.90
2017,02,12,10,06,4.90
2017,02,12,10,07,4.80
2017,02,12,10,08,4.80
2017,02,12,10,09,4.80
2017,02,12,10,10,4.80
2017,02,12,10,11,4.80
2017,02,12,10,12,4.80
2017,02,12,10,13,4.80
2017,02,12,10,14,4.80
2017,02,12,10,15,4.80
2017,02,12,10,16,4.80
2017,02,12,10,17,4.80
2017,02,12,10,18,4.80
2017,02,12,10,19,4.70
2017,02,12,10,20,4.70
2017,02,12,10,21,4.70
2017,02,12,10,22,4.70
2017,02,12,10,23,4.70
2017,02,12,10,24,4.70
2017,02,12,10,25,4.60
2017,02,12,10,26,4.60
2017,02,12,10,27,4.60
2017,02,12,10,28,4.60
2017,02,12,10,29,4.60
2017,02,12,10,30,4.60
2017,02,12,10,31,4.60
2017,02,12,10,32,4.60
2017,02,12,10,33,4.60
2017,02,12,10,34,4.50
2017,02,12,10,35,4.50
2017,02,12,10,36,4.50
2017,02,12,10,37,4.50
2017,02,12,10,38,4.50
2017,02,12,10,39,4.50
2017,02,12,10,40,4.50
2017,02,12,10,41,4.50
2017,02,12,10,42,4.50
2017,02,12,10,43,4.50
2017,02,12,10,44,4.50
2017,02,12,10,45,4.50
2017,02,12,10,46,4.50
2017,02,12,10,47,4.50
2017,02,12,10,48,4.50
2017,02,12,10,49,4.60
2017,02,12,10,50,4.60
2017,02,12,10,51,4.60
2017,02,12,10,52,4.60
2017,02,12,10,53,4.60
2017,02,12,10,54,4.60
2017,02,12,10,55,4.60
2017,02,12,10,56,4.50
2017,02,12,10,57,4.50
2017,02,12,10,58,4.50
2017,02,12,10,59,4.50
2017,02,12,11,00,4.50
2017,02,12,11,01,4.50
2017,02,12,11,02,4.50
2017,02,12,11,03,4.50
2017,02,12,11,04,4.40
2017,02,12,11,05,4.40
2017,02,12,11,06,4.40
2017,02,12,11,07,4.40
2017,02,12,11,08,4.40
2017,02,12,11,09,4.40
2017,02,12,11,10,4.40
2017,02,12,11,11,4.40
2017,02,12,11,12,4.30
2017,02,12,11,13,4.30
2017,02,12,11,14,4.30
2017,02,12,11,15,4.30
2017,02,12,11,16,4.30
2017,02,12,11,17,4.30
2017,02,12,11,18,4.20
2017,02,12,11,19,4.20
2017,02,12,11,20,4.20
2017,02,12,11,21,4.20
2017,02,12,11,22,4.20
2017,02,12,11,23,4.20
2017,02,12,11,24,4.10
2017,02,12,11,25,4.10
2017,02,12,11,26,4.00
2017,02,12,11,27,4.00
2017,02,12,11,28,3.90
2017,02,12,11,29,3.80
2017,02,12,11,30,3.80
2017,02,12,11,31,3.70
2017,02,12,11,32,3.70
2017,02,12,11,33,3.70
2017,02,12,11,34,3.70
2017,02,12,11,35,3.70
2017,02,12,11,36,3.70
2017,02,12,11,37,3.70
2017,02,12,11,38,3.70
2017,02,12,11,39,3.70
2017,02,12,11,40,3.70
2017,02,12,11,41,3.70
2017,02,12,11,42,3.70
2017,02,12,11,43,3.70
2017,02,12,11,44,3.70
2017,02,12,11,45,3.70
2017,02,12,11,46,3.70
2017,02,12,11,47,3.70
2017,02,12,11,48,3.60
2017,02,12,11,49,3.60
2017,02,12,11,50,3.60
2017,02,12,11,51,3.60
2017,02,12,11,52,3.50
2017,02,12,11,53,3.50
2017,02,12,11,54,3.40
2017,02,12,11,55,3.40
2017,02,12,11,56,3.30
2017,02,12,11,57,3.20
2017,02,12,11,58,3.20
2017,02,12,11,59,3.20
2017,02,12,12,00,3.20
2017,02,12,12,01,3.20
2017,02,12,12,02,3.20
2017,02,12,12,03,3.20
2017,02,12,12,04,3.20
2017,02,12,12,05,3.10
2017,02,12,12,06,3.10
2017,02,12,12,07,3.10
2017,02,12,12,08,3.10
2017,02,12,12,09,3.10
2017,02,12,12,10,3.10
2017,02,12,12,11,3.20
2017,02,12,12,12,3.20
2017,02,12,12,13,3.20
2017,02,12,12,14,3.20
2017,02,12,12,15,3.20
2017,02,12,12,16,3.20
2017,02,12,12,17,3.20
2017,02,12,12,18,3.20
2017,02,12,12,19,3.10
2017,02,12,12,20,3.10
2017,02,12,12,21,3.10
2017,02,12,12,22,3.10
2017,02,12,12,23,3.10
2017,02,12,12,24,3.10
2017,02,12,12,25,3.10
2017,02,12,12,26,3.10
2017,02,12,12,27,3.10
2017,02,12,12,28,3.00
2017,02,12,12,29,3.00
2017,02,12,12,30,3.00
2017,02,12,12,31,3.00
2017,02,12,12,32,3.00
2017,02,12,12,33,3.00
2017,02,12,12,34,3.10
2017,02,12,12,35,3.10
2017,02,12,12,36,3.10
2017,02,12,12,37,3.10
2017,02,12,12,38,3.10
2017,02,12,12,39,3.10
2017,02,12,12,40,3.10
2017,02,12,12,41,3.10
2017,02,12,12,42,3.10
2017,02,12,12,43,3.10
2017,02,12,12,44,3.10
2017,02,12,12,45,3.10
2017,02,12,12,46,3.10
2017,02,12,12,47,3.00
2017,02,12,12,48,3.00
2017,02,12,12,49,3.00
2017,02,12,12,50,3.00
2017,02,12,12,51,3.00
2017,02,12,12,52,3.10
2017,02,12,12,53,3.10
2017,02,12,12,54,3.10
2017,02,12,12,55,3.10
2017,02,12,12,56,3.10
2017,02,12,12,57,3.00
2017,02,12,12,58,3.00
2017,02,12,12,59,3.00
2017,02,12,13,00,3.00
2017,02,12,13,01,3.00
2017,02,12,13,02,3.00
2017,02,12,13,03,3.00
2017,02,12,13,04,3.00
2017,02,12,13,05,3.00
2017,02,12,13,06,3.00
2017,02,12,13,07,3.00
2017,02,12,13,08,3.00
2017,02,12,13,09,3.00
2017,02,12,13,10,3.00
2017,02,12,13,11,3.00
2017,02,12,13,12,3.00
2017,02,12,13,13,3.10
2017,02,12,13,14,3.00
2017,02,12,13,15,3.10
2017,02,12,13,16,3.00
2017,02,12,13,17,3.00
2017,02,12,13,18,3.00
2017,02,12,13,19,3.00
2017,02,12,13,20,3.00
2017,02,12,13,21,2.90
2017,02,12,13,22,2.90
2017,02,12,13,23,2.90
2017,02,12,13,24,2.90
2017,02,12,13,25,2.90
2017,02,12,13,26,2.90
2017,02,12,13,27,3.00
2017,02,12,13,28,3.00
2017,02,12,13,29,3.00
2017,02,12,13,30,3.00
2017,02,12,13,31,3.00
2017,02,12,13,32,3.00
2017,02,12,13,33,3.00
2017,02,12,13,34,3.00
2017,02,12,13,35,3.00
2017,02,12,13,36,3.00
2017,02,12,13,37,3.00
2017,02,12,13,38,3.00
2017,02,12,13,39,3.10
2017,02,12,13,40,3.10
2017,02,12,13,41,3.10
2017,02,12,13,42,3.10
2017,02,12,13,43,3.10
2017,02,12,13,44,3.10
2017,02,12,13,45,3.10
2017,02,12,13,46,3.10
2017,02,12,13,47,3.10
2017,02,12,13,48,3.10
2017,02,12,13,49,3.10
2017,02,12,13,50,3.10
2017,02,12,13,51,3.10
2017,02,12,13,52,3.00
2017,02,12,13,53,3.00
2017,02,12,13,54,3.00
2017,02,12,13,55,3.00
2017,02,12,13,56,3.00
2017,02,12,13,57,3.00
2017,02,12,13,58,2.90
2017,02,12,13,59,2.90
2017,02,12,14,00,2.90
2017,02,12,14,01,2.90
2017,02,12,14,02,2.90
2017,02,12,14,03,2.90
2017,02,12,14,04,2.90
2017,02,12,14,05,2.90
2017,02,12,14,06,2.90
2017,02,12,14,07,2.90
2017,02,12,14,08,2.90
2017,02,12,14,09,2.80
2017,02,12,14,10,2.80
2017,02,12,14,11,2.80
2017,02,12,14,12,2.80
2017,02,12,14,13,2.80
2017,02,12,14,14,2.80
2017,02,12,14,15,2.80
2017,02,12,14,16,2.90
2017,02,12,14,17,2.90
2017,02,12,14,18,2.90
2017,02,12,14,19,2.90
2017,02,12,14,20,2.90
2017,02,12,14,21,3.00
2017,02,12,14,22,2.90
2017,02,12,14,23,2.90
2017,02,12,14,24,2.90
2017,02,12,14,25,2.90
2017,02,12,14,26,2.90
2017,02,12,14,27,2.90
2017,02,12,14,28,2.90
2017,02,12,14,29,2.80
2017,02,12,14,30,2.80
2017,02,12,14,31,2.80
2017,02,12,14,32,2.80
2017,02,12,14,33,2.80
2017,02,12,14,34,2.80
2017,02,12,14,35,2.70
2017,02,12,14,36,2.70
2017,02,12,14,37,2.70
2017,02,12,14,38,2.70
2017,02,12,14,39,2.70
2017,02,12,14,40,2.70
2017,02,12,14,41,2.70
2017,02,12,14,42,2.60
2017,02,12,14,43,2.50
2017,02,12,14,44,2.50
2017,02,12,14,45,2.40
2017,02,12,14,46,2.30
2017,02,12,14,47,2.30
2017,02,12,14,48,2.30
2017,02,12,14,49,2.30
2017,02,12,14,50,2.20
2017,02,12,14,51,2.20
2017,02,12,14,52,2.20
2017,02,12,14,53,2.20
2017,02,12,14,54,2.20
2017,02,12,14,55,2.20
2017,02,12,14,56,2.10
2017,02,12,14,57,2.10
2017,02,12,14,58,2.00
2017,02,12,14,59,2.00
2017,02,12,15,00,2.00
2017,02,12,15,01,2.00
2017,02,12,15,02,2.00
2017,02,12,15,03,2.00
2017,02,12,15,04,2.00
2017,02,12,15,05,2.10
2017,02,12,15,06,2.10
2017,02,12,15,07,2.20
2017,02,12,15,08,2.20
2017,02,12,15,09,2.20
2017,02,12,15,10,2.20
2017,02,12,15,11,2.20
2017,02,12,15,12,2.20
2017,02,12,15,13,2.20
2017,02,12,15,14,2.20
2017,02,12,15,15,2.20
2017,02,12,15,16,2.20
2017,02,12,15,17,2.20
2017,02,12,15,18,2.10
2017,02,12,15,19,2.10
2017,02,12,15,20,2.10
2017,02,12,15,21,2.10
2017,02,12,15,22,2.00
2017,02,12,15,23,2.00
2017,02,12,15,24,2.00
2017,02,12,15,25,2.00
2017,02,12,15,26,2.00
2017,02,12,15,27,1.90
2017,02,12,15,28,1.90
2017,02,12,15,29,1.90
2017,02,12,15,30,1.90
2017,02,12,15,31,1.90
2017,02,12,15,32,1.80
2017,02,12,15,33,1.80
2017,02,12,15,34,1.80
2017,02,12,15,35,1.80
2017,02,12,15,36,1.80
2017,02,12,15,37,1.70
2017,02,12,15,38,1.70
2017,02,12,15,39,1.70
2017,02,12,15,40,1.70
2017,02,12,15,41,1.80
2017,02,12,15,42,1.80
2017,02,12,15,43,1.80
2017,02,12,15,44,1.90
2017,02,12,15,45,1.90
2017,02,12,15,46,1.80
2017,02,12,15,47,1.90
2017,02,12,15,48,1.80
2017,02,12,15,49,1.80
2017,02,12,15,50,1.80
2017,02,12,15,51,1.80
2017,02,12,15,52,1.90
2017,02,12,15,53,1.90
2017,02,12,15,54,2.00
2017,02,12,15,55,2.00
2017,02,12,15,56,2.00
2017,02,12,15,57,2.10
2017,02,12,15,58,2.10
2017,02,12,15,59,2.10
2017,02,12,16,00,2.10
2017,02,12,16,01,2.10
2017,02,12,16,02,2.10
2017,02,12,16,03,2.10
2017,02,12,16,04,2.10
2017,02,12,16,05,2.10
2017,02,12,16,06,2.10
2017,02,12,16,07,2.00
2017,02,12,16,08,2.00
2017,02,12,16,09,1.90
2017,02,12,16,10,1.90
2017,02,12,16,11,1.90
2017,02,12,16,12,2.00
2017,02,12,16,13,2.00
2017,02,12,16,14,2.00
2017,02,12,16,15,2.00
2017,02,12,16,16,2.00
2017,02,12,16,17,2.00
2017,02,12,16,18,2.00
2017,02,12,16,19,2.00
2017,02,12,16,20,2.00
2017,02,12,16,21,1.90
2017,02,12,16,22,1.90
2017,02,12,16,23,1.90
2017,02,12,16,24,1.80
2017,02,12,16,25,1.80
2017,02,12,16,26,1.80
2017,02,12,16,27,1.80
2017,02,12,16,28,1.80
2017,02,12,16,29,1.80
2017,02,12,16,30,1.80
2017,02,12,16,31,1.80
2017,02,12,16,32,1.80
2017,02,12,16,33,1.80
2017,02,12,16,34,1.80
2017,02,12,16,35,1.80
2017,02,12,16,36,1.90
2017,02,12,16,37,1.90
2017,02,12,16,38,1.90
2017,02,12,16,39,1.90
2017,02,12,16,40,1.80
2017,02,12,16,41,1.80
2017,02,12,16,42,1.80
2017,02,12,16,43,1.80
2017,02,12,16,44,1.70
2017,02,12,16,45,1.70
2017,02,12,16,46,1.70
2017,02,12,16,47,1.70
2017,02,12,16,48,1.70
2017,02,12,16,49,1.70
2017,02,12,16,50,1.70
2017,02,12,16,51,1.70
2017,02,12,16,52,1.70
2017,02,12,16,53,1.70
2017,02,12,16,54,1.70
2017,02,12,16,55,1.80
2017,02,12,16,56,1.80
2017,02,12,16,57,1.80
2017,02,12,16,58,1.80
2017,02,12,16,59,1.80
2017,02,12,17,00,1.80
2017,02,12,17,01,1.80
2017,02,12,17,02,1.80
2017,02,12,17,03,1.80
2017,02,12,17,04,1.80
2017,02,12,17,05,1.80
2017,02,12,17,06,1.80
2017,02,12,17,07,1.70
2017,02,12,17,08,1.70
2017,02,12,17,09,1.70
2017,02,12,17,10,1.70
2017,02,12,17,11,1.70
2017,02,12,17,12,1.70
2017,02,12,17,13,1.70
2017,02,12,17,14,1.70
2017,02,12,17,15,1.70
2017,02,12,17,16,1.70
2017,02,12,17,17,1.70
2017,02,12,17,18,1.70
2017,02,12,17,19,1.70
2017,02,12,17,20,1.60
2017,02,12,17,21,1.60
2017,02,12,17,22,1.60
2017,02,12,17,23,1.60
2017,02,12,17,24,1.60
2017,02,12,17,25,1.50
2017,02,12,17,26,1.50
2017,02,12,17,27,1.50
2017,02,12,17,28,1.50
2017,02,12,17,29,1.50
2017,02,12,17,30,1.40
2017,02,12,17,31,1.40
2017,02,12,17,32,1.40
2017,02,12,17,33,1.40
2017,02,12,17,34,1.40
2017,02,12,17,35,1.40
2017,02,12,17,36,1.40
2017,02,12,17,37,1.40
2017,02,12,17,38,1.40
2017,02,12,17,39,1.40
2017,02,12,17,40,1.40
2017,02,12,17,41,1.40
2017,02,12,17,42,1.40
2017,02,12,17,43,1.40
2017,02,12,17,44,1.40
2017,02,12,17,45,1.40
2017,02,12,17,46,1.40
2017,02,12,17,47,1.40
2017,02,12,17,48,1.40
2017,02,12,17,49,1.40
2017,02,12,17,50,1.40
2017,02,12,17,51,1.40
2017,02,12,17,52,1.50
2017,02,12,17,53,1.50
2017,02,12,17,54,1.50
2017,02,12,17,55,1.50
2017,02,12,17,56,1.50
2017,02,12,17,57,1.40
2017,02,12,17,58,1.40
2017,02,12,17,59,1.50
2017,02,12,18,00,1.50
2017,02,12,18,01,1.50
2017,02,12,18,02,1.50
2017,02,12,18,03,1.60
2017,02,12,18,04,1.60
2017,02,12,18,05,1.70
2017,02,12,18,06,1.70